Home   Weather   Maraimalai Nagar   Past weeks

Flag for India Past Weather in Maraimalai Nagar, Tamil Nadu, India — Yesterday and Last 2 Weeks

Now
91 °F

Broken clouds.


Feels Like: 108 °F
Forecast: 78 / 92 °F
Wind: 7 mph from Southwest

Location: Madras / Minambakkam

Current Time: Sep 27, 2016 at 12:41:40 PM

Latest Report: Sep 27, 2016 at 12:00 PM


Visibility: 3 mi

Pressure: 29.71 "Hg

Humidity: 67%

Dew Point: 79 °F

Location of Maraimalai NagarLocation

Past Weather in Maraimalai Nagar — Graph

°F

Maraimalai Nagar Temperature Yesterday

Maximum temperature yesterday: 99 °F (at 2:30 PM)
Minimum temperature yesterday: 84 °F (at 12:00 AM)
Average temperature yesterday: 89 °F

High & Low Weather Summary for the Past Weeks

 TemperatureHumidityPressure
High99 °F (Sep 19, 2:30 PM)100% (Sep 16, 1:30 AM)29.77 "Hg (Sep 16, 1:30 AM)
Low75 °F (Sep 16, 12:30 AM)44% (Sep 18, 3:30 PM)29.50 "Hg (Sep 24, 2:30 PM)
Average85 °F73%29.65 "Hg
* Reported Sep 12 11:30 AM — Sep 27 11:30 AM, Maraimalai Nagar, Weather by CustomWeather, © 2016

Note: Actual official high and low records may vary slightly from our data, if they occured in-between our weather recording intervals... More about our weather records

Advertising

Maraimalai Nagar Weather History for the Previous 24 Hours

Scroll right to see more
 ConditionsComfort  
Time TempWeatherWind HumidityBarometerVisibility
11:30 AM
Tue, Sep 27
91 °FBroken clouds.9 mph71%29.71 "Hg3 mi
10:30 AM88 °FBroken clouds.9 mph75%29.74 "Hg3 mi
10:00 AM86 °FBroken clouds.9 mph79%29.74 "Hg3 mi
9:30 AM86 °FBroken clouds.9 mph79%29.74 "Hg3 mi
9:00 AM84 °FBroken clouds.9 mph84%29.74 "Hg3 mi
8:30 AM82 °FBroken clouds.9 mph89%29.71 "Hg3 mi
8:00 AM82 °FBroken clouds.7 mph84%29.74 "Hg3 mi
7:30 AM82 °FBroken clouds.7 mph84%29.74 "Hg3 mi
7:00 AM81 °FBroken clouds.9 mph84%29.71 "Hg3 mi
6:30 AM81 °FBroken clouds.9 mph89%29.68 "Hg3 mi
6:00 AM81 °FPartly cloudy.9 mph89%29.68 "Hg3 mi
5:30 AM81 °FPartly cloudy.9 mph89%29.68 "Hg3 mi
5:00 AM81 °FPartly cloudy.7 mph84%29.68 "Hg3 mi
4:30 AM79 °FPartly cloudy.7 mph89%29.65 "Hg3 mi
4:00 AM79 °FPartly cloudy.7 mph89%29.65 "Hg3 mi
3:30 AM79 °FThunderstorms. Partly cloudy.12 mph89%29.65 "Hg3 mi
3:00 AM81 °FThunderstorms. Partly cloudy.12 mph89%29.65 "Hg3 mi
2:30 AM81 °FThunderstorms. Partly cloudy.7 mph89%29.65 "Hg3 mi
2:00 AM82 °FThunderstorms. Partly cloudy.9 mph79%29.65 "Hg3 mi
1:30 AM82 °FThunderstorms. Partly cloudy.9 mph79%29.68 "Hg3 mi
1:00 AM82 °FThunderstorms. Partly cloudy.9 mph79%29.68 "Hg3 mi
12:30 AM82 °FThunderstorms. Partly cloudy.10 mph79%29.68 "Hg3 mi
12:00 AM84 °FThunderstorms. Partly cloudy.10 mph74%29.71 "Hg3 mi
11:30 PM
Mon, Sep 26
84 °FPartly cloudy.7 mph74%29.71 "Hg3 mi
11:00 PM84 °FPartly cloudy.9 mph79%29.71 "Hg3 mi
10:30 PM86 °FPartly cloudy.5 mph79%29.71 "Hg4 mi
10:00 PM86 °FPassing clouds.5 mph75%29.71 "Hg4 mi
9:30 PM88 °FPassing clouds.6 mph70%29.71 "Hg4 mi
9:00 PM88 °FPassing clouds.5 mph70%29.71 "Hg4 mi
8:30 PM88 °FPassing clouds.5 mph70%29.68 "Hg4 mi
8:00 PM88 °FPassing clouds.5 mph70%29.68 "Hg4 mi
7:30 PM88 °FPassing clouds.No wind66%29.65 "Hg4 mi
7:00 PM90 °FPassing clouds.6 mph67%29.65 "Hg3 mi
6:30 PM90 °FScattered clouds.6 mph67%29.62 "Hg3 mi
6:00 PM90 °FScattered clouds.6 mph67%29.62 "Hg3 mi
5:30 PM91 °FScattered clouds.7 mph67%29.62 "Hg3 mi
5:00 PM91 °FScattered clouds.9 mph67%29.59 "Hg4 mi
4:30 PM93 °FScattered clouds.9 mph63%29.59 "Hg4 mi
4:00 PM95 °FScattered clouds.12 mph60%29.59 "Hg5 mi
3:30 PM95 °FScattered clouds.12 mph56%29.59 "Hg5 mi
3:00 PM99 °FScattered clouds.6 mph50%29.59 "Hg5 mi
2:30 PM99 °FScattered clouds.7 mph47%29.59 "Hg5 mi
2:00 PM97 °FScattered clouds.7 mph53%29.59 "Hg5 mi
1:30 PM95 °FScattered clouds.9 mph56%29.62 "Hg5 mi
1:00 PM93 °FScattered clouds.7 mph56%29.62 "Hg5 mi
12:30 PM93 °FScattered clouds.7 mph53%29.65 "Hg4 mi
12:00 PM93 °FScattered clouds.8 mph53%29.65 "Hg4 mi
Weather by CustomWeather, © 2016

See weather overviewHow to use our weather pages